Miscellaneous Local Product
Issued by NWS Hastings, NE

Home | Current Version | Previous Version | Graphics & Text | Print | Product List | Glossary On
Versions: 1 2 3 4 5 6 7 8 9 10 11 12 13 14 15 16 17 18 19 20 21 22 23 24 25 26 27 28 29 30 31 32 33 34 35 36 37 38 39 40 41 42 43 44 45 46 47 48 49 50
336
AXUS43 KGID 220802
MISGRI

GID CWA HOURLY WEATHER ROUNDUP
NATIONAL WEATHER SERVICE HASTINGS NE
200 AM CST WED NOV 22 2017

NOTE: "FAIR" INDICATES FEW OR NO CLOUDS BELOW 12,000 FEET WITH NO
SIGNIFICANT WEATHER AND/OR OBSTRUCTIONS TO VISIBILITY.

...SOUTH CENTRAL NEBRASKA...

CITY           SKY/WX    TMP DP  RH WIND       PRES   REMARKS
GRAND ISLAND   CLOUDY    18  15  88 CALM      30.38F
KEARNEY        CLOUDY    22  13  68 SW8       30.38S WCI  12
HASTINGS       CLOUDY    16  10  77 SW6       30.39S WCI   7
ORD            CLOUDY    15  11  83 CALM      30.34F
YORK           PTCLDY    14  10  85 W5        30.41R WCI   6
AURORA         CLOUDY    13   9  83 NW3       30.38F
LEXINGTON      CLOUDY    24  15  69 S6        30.36F WCI  16
HOLDREGE       CLOUDY    21  13  69 SW5       30.37F WCI  15
HEBRON         CLOUDY    14  10  85 CALM      30.42F

...NEBRASKA PANHANDLE...

CITY           SKY/WX    TMP DP  RH WIND       PRES   REMARKS
CHADRON        CLOUDY    25  23  92 SW5       30.16F WCI  19
ALLIANCE       CLOUDY    28  26  92 SW3       30.18F
SCOTTSBLUFF    CLOUDY    32  25  75 CALM      30.20S
SIDNEY         CLOUDY    34  28  79 W6        30.21F WCI  29

...WESTERN AND NORTH CENTRAL NEBRASKA...

CITY           SKY/WX    TMP DP  RH WIND       PRES   REMARKS
VALENTINE      CLOUDY    19  15  84 CALM      30.23F
AINSWORTH      CLOUDY    22  15  72 S9        30.26F WCI  12
ONEILL         CLOUDY    14  12  90 CALM      30.34F
BROKEN BOW     CLOUDY    20  13  74 S3        30.33F
IMPERIAL       CLOUDY    27  24  89 S5        30.28F WCI  22
NORTH PLATTE   CLOUDY    23  17  78 E6        30.30F WCI  16
MCCOOK         CLOUDY    23  16  74 E3        30.34F

...EASTERN NEBRASKA...

CITY           SKY/WX    TMP DP  RH WIND       PRES   REMARKS
NORFOLK        CLOUDY    11   8  88 SW6       30.38S WCI   1
SO SIOUX CITY  CLOUDY    14   8  77 CALM      30.41S
TEKAMAH        CLOUDY    11   6  81 CALM      30.43S
COLUMBUS       CLOUDY    13   9  84 W5        30.42R WCI   5
ALBION         CLOUDY    11   7  83 CALM      30.37F
OMAHA EPPLEY   CLOUDY    16   9  74 NW7       30.43S WCI   6
OFFUTT AFB     CLOUDY    16  10  75 NW8       30.42R WCI   6
MILLARD        CLOUDY    21  12  69 NW6       30.43R WCI  13
LINCOLN        CLOUDY    13   8  81 MISG      30.44S
NEBRASKA CITY  CLOUDY    18  12  79 NW7       30.41S WCI   8
BEATRICE       CLOUDY    17  12  81 CALM      30.40F
FALLS CITY     PTCLDY    19  13  77 W6        30.42S WCI  11

...NORTHERN KANSAS...

CITY           SKY/WX    TMP DP  RH WIND       PRES   REMARKS
GOODLAND       CLOUDY    31  23  72 S7        30.30S WCI  24
HILL CITY      CLOUDY    20  14  77 N3        30.39S
NORTON         SUNNY     21  10  63 CALM      30.36F
PHILLIPSBURG   CLEAR     19  12  73 CALM      30.40F
SMITH CENTER   CLEAR     16  10  79 NW3       30.43S
HAYS           CLOUDY    21  13  71 E3        30.40F
RUSSELL        CLOUDY    18  12  77 W5        30.40S WCI  11
CONCORDIA      CLOUDY    20  12  71 N3        30.42S
SALINA         CLOUDY    22  12  65 W6        30.44F WCI  14
TOPEKA         CLOUDY    22  15  75 W5        30.44R WCI  16



USA.gov is the U.S. government's official web portal to all federal, state and local government web resources and services.